| time (UTC) | temp F | wind direction | speed knots | gust knots | rain 1hr in | rain 24hr in | rain mn in | humidity % | barometer mb |
| 20260506023818 | 49 | 15 | 7.8 | 11.3 | 0.00 | 0.00 | 0.00 | 85 | 1007.6 |
| 20260506022814 | 49 | 18 | 7.8 | 10.4 | 0.00 | 0.00 | 0.00 | 84 | 1007.6 |
| 20260506022314 | 49 | 25 | 8.7 | 11.3 | 0.00 | 0.00 | 0.00 | 84 | 1007.6 |
| 20260506021815 | 49 | 25 | 7.8 | 11.3 | 0.00 | 0.00 | 0.00 | 84 | 1007.7 |
| 20260506021314 | 49 | 30 | 7.8 | 9.6 | 0.00 | 0.00 | 0.00 | 84 | 1007.8 |
| 20260506020815 | 49 | 21 | 7.8 | 10.4 | 0.00 | 0.00 | 0.00 | 84 | 1007.7 |
| 20260506015816 | 49 | 15 | 7.0 | 9.6 | 0.00 | 0.00 | 0.00 | 84 | 1007.9 |
| 20260506014815 | 49 | 15 | 7.0 | 9.6 | 0.00 | 0.00 | 0.00 | 83 | 1008.0 |
| 20260506014314 | 49 | 10 | 7.0 | 10.4 | 0.00 | 0.00 | 0.00 | 83 | 1008.0 |
| 20260506013814 | 49 | 14 | 7.8 | 10.4 | 0.00 | 0.00 | 0.00 | 83 | 1008.1 |
| 20260506012813 | 49 | 20 | 7.8 | 10.4 | 0.00 | 0.00 | 0.00 | 83 | 1008.1 |
| 20260506012313 | 49 | 14 | 7.8 | 10.4 | 0.00 | 0.00 | 0.00 | 83 | 1008.1 |
| 20260506011814 | 49 | 8 | 7.0 | 11.3 | 0.00 | 0.00 | 0.00 | 83 | 1008.1 |
| 20260506011314 | 49 | 24 | 8.7 | 11.3 | 0.00 | 0.00 | 0.00 | 83 | 1008.1 |
| 20260506010814 | 49 | 7 | 7.0 | 10.4 | 0.00 | 0.00 | 0.00 | 83 | 1008.1 |
| 20260506010314 | 49 | 10 | 7.8 | 10.4 | 0.00 | 0.00 | 0.00 | 83 | 1008.2 |
| 20260506005312 | 49 | 14 | 7.8 | 9.6 | 0.00 | 0.00 | 0.00 | 82 | 1008.2 |
| 20260506004813 | 49 | 11 | 7.0 | 9.6 | 0.00 | 0.00 | 0.00 | 82 | 1008.3 |
| 20260506004312 | 49 | 11 | 6.1 | 9.6 | 0.00 | 0.00 | 0.00 | 82 | 1008.3 |
| 20260506003812 | 49 | 14 | 7.0 | 9.6 | 0.00 | 0.00 | 0.00 | 82 | 1008.4 |
| 20260506003315 | 49 | 11 | 6.1 | 10.4 | 0.00 | 0.00 | 0.00 | 82 | 1008.4 |
| 20260506002814 | 49 | 17 | 7.8 | 10.4 | 0.00 | 0.00 | 0.00 | 82 | 1008.4 |
| 20260506002317 | 49 | 28 | 7.0 | 10.4 | 0.00 | 0.00 | 0.00 | 82 | 1008.6 |
| 20260506000813 | 49 | 32 | 7.8 | 11.3 | 0.00 | 0.00 | 0.00 | 81 | 1008.6 |
| 20260506000312 | 49 | 24 | 7.8 | 11.3 | 0.00 | 0.00 | 0.00 | 81 | 1008.7 |
| 20260505235811 | 49 | 31 | 7.0 | 9.6 | 0.00 | 0.00 | 0.00 | 81 | 1008.7 |
| 20260505235311 | 49 | 30 | 6.1 | 10.4 | 0.00 | 0.00 | 0.00 | 81 | 1008.8 |
| 20260505234808 | 49 | 18 | 5.2 | 10.4 | 0.00 | 0.00 | 0.00 | 81 | 1008.8 |
| 20260505234310 | 49 | 14 | 7.8 | 10.4 | 0.00 | 0.00 | 0.00 | 81 | 1008.9 |
| 20260505233309 | 49 | 25 | 7.8 | 12.2 | 0.00 | 0.00 | 0.00 | 81 | 1008.9 |
| 20260505232810 | 49 | 24 | 7.8 | 11.3 | 0.00 | 0.00 | 0.00 | 80 | 1008.9 |
| 20260505232310 | 49 | 30 | 8.7 | 11.3 | 0.00 | 0.00 | 0.00 | 80 | 1009.0 |
| 20260505231809 | 49 | 21 | 9.6 | 11.3 | 0.00 | 0.00 | 0.00 | 80 | 1009.0 |
| 20260505230809 | 49 | 28 | 8.7 | 13.9 | 0.00 | 0.00 | 0.00 | 80 | 1009.0 |
| 20260505230308 | 49 | 21 | 8.7 | 12.2 | 0.00 | 0.00 | 0.00 | 80 | 1009.0 |
| 20260505225310 | 49 | 27 | 7.0 | 11.3 | 0.00 | 0.00 | 0.00 | 80 | 1009.0 |
| 20260505224808 | 49 | 25 | 8.7 | 14.8 | 0.00 | 0.00 | 0.00 | 80 | 1009.0 |
| 20260505224307 | 49 | 24 | 8.7 | 14.8 | 0.00 | 0.00 | 0.00 | 80 | 1009.1 |
| 20260505223812 | 49 | 17 | 7.0 | 13.0 | 0.00 | 0.00 | 0.00 | 80 | 1009.1 |
| 20260505223308 | 49 | 30 | 9.6 | 12.2 | 0.00 | 0.00 | 0.00 | 80 | 1009.2 |
| 20260505222810 | 49 | 17 | 9.6 | 14.8 | 0.00 | 0.00 | 0.00 | 80 | 1009.2 |
| 20260505222307 | 49 | 21 | 9.6 | 14.8 | 0.00 | 0.00 | 0.00 | 81 | 1009.2 |
| 20260505221808 | 49 | 32 | 8.7 | 12.2 | 0.00 | 0.00 | 0.00 | 81 | 1009.2 |
| 20260505221308 | 49 | 8 | 8.7 | 14.8 | 0.00 | 0.00 | 0.00 | 81 | 1009.2 |
| 20260505220809 | 49 | 14 | 9.6 | 14.8 | 0.00 | 0.00 | 0.00 | 80 | 1009.3 |
| 20260505220307 | 49 | 44 | 9.6 | 13.0 | 0.00 | 0.00 | 0.00 | 81 | 1009.3 |
| 20260505215809 | 49 | 21 | 9.6 | 13.9 | 0.00 | 0.00 | 0.00 | 81 | 1009.3 |
| 20260505215308 | 49 | 31 | 9.6 | 13.9 | 0.00 | 0.00 | 0.00 | 81 | 1009.3 |
| 20260505214806 | 49 | 18 | 10.4 | 12.2 | 0.00 | 0.00 | 0.00 | 81 | 1009.4 |
| 20260505214306 | 49 | 20 | 7.8 | 13.0 | 0.00 | 0.00 | 0.00 | 81 | 1009.4 |
| 20260505213807 | 49 | 17 | 8.7 | 13.0 | 0.00 | 0.00 | 0.00 | 81 | 1009.4 |
| 20260505213306 | 49 | 31 | 8.7 | 12.2 | 0.00 | 0.00 | 0.00 | 81 | 1009.5 |
| 20260505212809 | 49 | 10 | 8.7 | 12.2 | 0.00 | 0.00 | 0.00 | 81 | 1009.5 |
| 20260505212308 | 49 | 23 | 9.6 | 12.2 | 0.00 | 0.00 | 0.00 | 81 | 1009.5 |
| 20260505211306 | 49 | 27 | 9.6 | 13.0 | 0.00 | 0.00 | 0.00 | 81 | 1009.5 |
| 20260505210306 | 49 | 18 | 9.6 | 13.9 | 0.00 | 0.00 | 0.00 | 81 | 1009.6 |
| 20260505205306 | 49 | 28 | 11.3 | 13.9 | 0.00 | 0.01 | 0.00 | 81 | 1009.6 |
| 20260505204808 | 49 | 27 | 11.3 | 14.8 | 0.00 | 0.01 | 0.00 | 81 | 1009.7 |
| 20260505204307 | 49 | 15 | 8.7 | 14.8 | 0.00 | 0.01 | 0.00 | 81 | 1009.7 |
| 20260505203806 | 49 | 27 | 10.4 | 13.9 | 0.00 | 0.01 | 0.00 | 81 | 1009.8 |
| 20260505203312 | 49 | 18 | 9.6 | 12.2 | 0.00 | 0.01 | 0.00 | 81 | 1009.8 |
| 20260505202804 | 49 | 25 | 8.7 | 13.0 | 0.00 | 0.01 | 0.00 | 81 | 1009.8 |
| 20260505202310 | 49 | 21 | 10.4 | 13.0 | 0.00 | 0.01 | 0.00 | 81 | 1009.8 |
| 20260505201807 | 49 | 15 | 8.7 | 13.0 | 0.00 | 0.01 | 0.00 | 81 | 1009.9 |
| 20260505200804 | 49 | 20 | 9.6 | 12.2 | 0.00 | 0.01 | 0.00 | 81 | 1009.9 |
| 20260505200308 | 49 | 28 | 7.0 | 13.0 | 0.00 | 0.01 | 0.00 | 81 | 1009.8 |
| 20260505195804 | 50 | 27 | 7.8 | 13.0 | 0.00 | 0.01 | 0.00 | 81 | 1009.9 |
| 20260505195305 | 50 | 38 | 7.8 | 12.2 | 0.00 | 0.01 | 0.00 | 81 | 1009.8 |
| 20260505194803 | 50 | 24 | 7.8 | 12.2 | 0.00 | 0.01 | 0.00 | 81 | 1009.8 |
| 20260505194305 | 50 | 25 | 7.8 | 12.2 | 0.00 | 0.01 | 0.00 | 81 | 1009.8 |
| 20260505193802 | 50 | 30 | 9.6 | 12.2 | 0.00 | 0.01 | 0.00 | 81 | 1009.9 |
| 20260505193304 | 50 | 20 | 9.6 | 12.2 | 0.00 | 0.01 | 0.00 | 81 | 1009.8 |
| 20260505192803 | 50 | 28 | 8.7 | 13.9 | 0.00 | 0.01 | 0.00 | 81 | 1009.7 |
| 20260505192306 | 50 | 20 | 8.7 | 15.6 | 0.00 | 0.01 | 0.00 | 81 | 1009.6 |
| 20260505191805 | 50 | 20 | 9.6 | 15.6 | 0.00 | 0.01 | 0.00 | 81 | 1009.6 |
| 20260505191304 | 50 | 15 | 7.8 | 14.8 | 0.00 | 0.01 | 0.00 | 81 | 1009.6 |
| 20260505185803 | 50 | 37 | 13.0 | 18.2 | 0.00 | 0.01 | 0.00 | 81 | 1009.4 |
| 20260505185306 | 51 | 17 | 13.0 | 15.6 | 0.00 | 0.01 | 0.00 | 81 | 1009.3 |
| 20260505184803 | 51 | 31 | 10.4 | 15.6 | 0.00 | 0.01 | 0.00 | 81 | 1009.3 |
| 20260505184302 | 51 | 10 | 7.8 | 15.6 | 0.00 | 0.01 | 0.00 | 81 | 1009.3 |
| 20260505183809 | 51 | 23 | 12.2 | 15.6 | 0.00 | 0.01 | 0.00 | 81 | 1009.2 |
| 20260505181802 | 51 | 6 | 12.2 | 15.6 | 0.00 | 0.01 | 0.00 | 80 | 1009.3 |
| 20260505181303 | 51 | 18 | 9.6 | 13.9 | 0.00 | 0.01 | 0.00 | 80 | 1009.4 |
| 20260505175757 | 52 | 15 | 9.6 | 15.6 | 0.00 | 0.01 | 0.00 | 80 | 1009.4 |
| 20260505174757 | 52 | 13 | 13.0 | 17.4 | 0.00 | 0.01 | 0.00 | 79 | 1009.4 |
| 20260505173755 | 52 | 14 | 10.4 | 15.6 | 0.00 | 0.01 | 0.00 | 79 | 1009.3 |
| 20260505173257 | 52 | 28 | 13.0 | 17.4 | 0.00 | 0.01 | 0.00 | 78 | 1009.3 |
| 20260505171754 | 53 | 14 | 11.3 | 15.6 | 0.00 | 0.01 | 0.00 | 77 | 1009.4 |
| 20260505171257 | 53 | 11 | 12.2 | 15.6 | 0.00 | 0.01 | 0.00 | 76 | 1009.4 |
| 20260505170755 | 53 | 14 | 9.6 | 14.8 | 0.00 | 0.01 | 0.00 | 76 | 1009.4 |
| 20260505170253 | 53 | 23 | 9.6 | 13.0 | 0.00 | 0.01 | 0.00 | 76 | 1009.5 |
| 20260505165753 | 53 | 18 | 7.8 | 13.9 | 0.00 | 0.01 | 0.00 | 75 | 1009.5 |
| 20260505165254 | 53 | 20 | 10.4 | 13.9 | 0.00 | 0.01 | 0.00 | 76 | 1009.5 |
| 20260505164755 | 53 | 21 | 10.4 | 13.9 | 0.00 | 0.01 | 0.00 | 75 | 1009.5 |
| 20260505164251 | 53 | 7 | 9.6 | 14.8 | 0.00 | 0.01 | 0.00 | 76 | 1009.6 |
| 20260505163752 | 53 | 13 | 12.2 | 14.8 | 0.00 | 0.01 | 0.00 | 75 | 1009.5 |
| 20260505163258 | 53 | 27 | 10.4 | 14.8 | 0.00 | 0.01 | 0.00 | 76 | 1009.6 |
| 20260505162752 | 53 | 11 | 10.4 | 15.6 | 0.00 | 0.01 | 0.00 | 76 | 1009.5 |
| 20260505161753 | 53 | 20 | 10.4 | 16.5 | 0.00 | 0.01 | 0.00 | 76 | 1009.6 |
| 20260505161253 | 53 | 17 | 12.2 | 17.4 | 0.00 | 0.01 | 0.00 | 76 | 1009.6 |
| 20260505160750 | 53 | 6 | 13.0 | 17.4 | 0.00 | 0.01 | 0.00 | 76 | 1009.6 |
| 20260505160252 | 53 | 13 | 11.3 | 17.4 | 0.00 | 0.01 | 0.00 | 77 | 1009.7 |
| 20260505153250 | 53 | 24 | 13.0 | 16.5 | 0.00 | 0.01 | 0.00 | 77 | 1009.7 |
| 20260505152744 | 53 | 18 | 9.6 | 13.9 | 0.00 | 0.01 | 0.00 | 78 | 1009.8 |
| 20260505152250 | 53 | 21 | 11.3 | 13.9 | 0.00 | 0.01 | 0.00 | 77 | 1009.7 |
| 20260505151743 | 53 | 7 | 12.2 | 13.9 | 0.00 | 0.01 | 0.00 | 78 | 1009.9 |
| 20260505151247 | 53 | 30 | 8.7 | 14.8 | 0.00 | 0.01 | 0.00 | 79 | 1009.9 |
| 20260505150742 | 53 | 23 | 8.7 | 14.8 | 0.00 | 0.01 | 0.00 | 79 | 1009.9 |
| 20260505140246 | 53 | 27 | 9.6 | 12.2 | 0.00 | 0.01 | 0.00 | 80 | 1010.3 |
| 20260505124739 | 52 | 18 | 8.7 | 12.2 | 0.00 | 0.01 | 0.00 | 79 | 1010.7 |
| 20260505124241 | 52 | 35 | 8.7 | 11.3 | 0.00 | 0.01 | 0.00 | 81 | 1010.8 |
| 20260505123739 | 52 | 27 | 8.7 | 10.4 | 0.00 | 0.01 | 0.00 | 80 | 1010.9 |
| 20260505123242 | 52 | 28 | 7.8 | 10.4 | 0.00 | 0.01 | 0.00 | 80 | 1011.0 |
| 20260505122255 | 51 | 35 | 8.7 | 11.3 | 0.00 | 0.01 | 0.00 | 80 | 1011.0 |
| 20260505121738 | 51 | 54 | 8.7 | 11.3 | 0.00 | 0.06 | 0.00 | 80 | 1010.9 |
| 20260505121241 | 52 | 48 | 7.8 | 11.3 | 0.00 | 0.09 | 0.00 | 80 | 1010.9 |
| 20260505120738 | 52 | 35 | 7.0 | 11.3 | 0.00 | 0.12 | 0.00 | 80 | 1010.9 |
| 20260505115336 | 52 | 30 | 7.8 | 11.3 | 0.00 | 0.12 | 0.00 | 80 | 1010.9 |
| 20260505114732 | 52 | 27 | 7.0 | 11.3 | 0.00 | 0.12 | 0.00 | 81 | 1010.9 |
| 20260505114232 | 52 | 27 | 7.0 | 11.3 | 0.00 | 0.12 | 0.00 | 80 | 1010.9 |
| 20260505113732 | 52 | 28 | 8.7 | 11.3 | 0.00 | 0.12 | 0.00 | 80 | 1010.9 |
| 20260505113233 | 51 | 30 | 7.0 | 11.3 | 0.00 | 0.12 | 0.00 | 81 | 1011.0 |
| 20260505112731 | 51 | 27 | 8.7 | 11.3 | 0.00 | 0.12 | 0.00 | 80 | 1010.9 |
| 20260505111732 | 51 | 44 | 7.8 | 10.4 | 0.00 | 0.12 | 0.00 | 80 | 1011.0 |
| 20260505111232 | 51 | 27 | 7.0 | 11.3 | 0.00 | 0.12 | 0.00 | 80 | 1011.1 |
| 20260505110734 | 51 | 56 | 7.0 | 11.3 | 0.00 | 0.12 | 0.00 | 79 | 1011.2 |
| 20260505110231 | 52 | 34 | 7.8 | 11.3 | 0.00 | 0.12 | 0.00 | 79 | 1011.2 |
| 20260505100731 | 51 | 37 | 9.6 | 12.2 | 0.00 | 0.12 | 0.00 | 80 | 1011.4 |
| 20260505100232 | 51 | 35 | 9.6 | 12.2 | 0.00 | 0.12 | 0.00 | 80 | 1011.4 |
| 20260505095731 | 51 | 39 | 7.8 | 12.2 | 0.00 | 0.12 | 0.00 | 81 | 1011.3 |
| 20260505094731 | 50 | 48 | 8.7 | 12.2 | 0.00 | 0.12 | 0.00 | 82 | 1011.5 |
| 20260505094231 | 50 | 44 | 9.6 | 13.0 | 0.00 | 0.12 | 0.00 | 81 | 1011.4 |
| 20260505093732 | 50 | 51 | 9.6 | 13.0 | 0.00 | 0.12 | 0.00 | 81 | 1011.5 |
| 20260505093232 | 50 | 25 | 9.6 | 12.2 | 0.00 | 0.12 | 0.00 | 81 | 1011.5 |
| 20260505092731 | 51 | 21 | 8.7 | 11.3 | 0.00 | 0.12 | 0.00 | 81 | 1011.6 |
| 20260505092231 | 50 | 20 | 7.8 | 12.2 | 0.00 | 0.12 | 0.00 | 81 | 1011.5 |
| 20260505091731 | 51 | 25 | 7.0 | 13.0 | 0.00 | 0.12 | 0.00 | 82 | 1011.5 |
| 20260505091231 | 51 | 34 | 10.4 | 13.0 | 0.00 | 0.12 | 0.00 | 80 | 1011.5 |
| 20260505090733 | 51 | 15 | 9.6 | 13.0 | 0.00 | 0.12 | 0.00 | 82 | 1011.5 |
| 20260505090232 | 50 | 46 | 9.6 | 13.0 | 0.00 | 0.12 | 0.00 | 81 | 1011.5 |
| 20260505085732 | 50 | 27 | 10.4 | 13.0 | 0.00 | 0.12 | 0.00 | 82 | 1011.5 |
| 20260505084732 | 50 | 39 | 12.2 | 13.9 | 0.00 | 0.12 | 0.00 | 82 | 1011.7 |
| 20260505083731 | 50 | 32 | 8.7 | 13.9 | 0.00 | 0.12 | 0.00 | 83 | 1011.7 |
| 20260505083231 | 49 | 32 | 10.4 | 13.9 | 0.00 | 0.12 | 0.00 | 83 | 1011.8 |
| 20260505082731 | 49 | 37 | 10.4 | 13.0 | 0.00 | 0.12 | 0.00 | 84 | 1011.7 |
| 20260505082231 | 49 | 44 | 8.7 | 13.0 | 0.00 | 0.12 | 0.00 | 85 | 1011.8 |
| 20260505081732 | 49 | 27 | 9.6 | 13.0 | 0.00 | 0.12 | 0.00 | 85 | 1011.9 |
| 20260505081231 | 49 | 49 | 8.7 | 13.0 | 0.00 | 0.12 | 0.00 | 85 | 1011.9 |
| 20260505080732 | 48 | 38 | 8.7 | 12.2 | 0.00 | 0.12 | 0.00 | 85 | 1011.9 |
| 20260505080231 | 48 | 34 | 9.6 | 13.9 | 0.00 | 0.12 | 0.00 | 85 | 1011.9 |
| 20260505075734 | 48 | 30 | 9.6 | 13.9 | 0.00 | 0.12 | 0.00 | 85 | 1012.1 |
| 20260505075231 | 48 | 20 | 10.4 | 13.0 | 0.00 | 0.12 | 0.00 | 85 | 1012.0 |
| 20260505074733 | 48 | 38 | 8.7 | 13.0 | 0.00 | 0.12 | 0.00 | 85 | 1012.1 |
| 20260505074232 | 48 | 42 | 9.6 | 13.0 | 0.00 | 0.12 | 0.00 | 85 | 1012.1 |
| 20260505073731 | 48 | 42 | 10.4 | 13.0 | 0.00 | 0.12 | 0.00 | 85 | 1012.1 |
| 20260505073231 | 48 | 38 | 7.8 | 12.2 | 0.00 | 0.12 | 0.00 | 86 | 1012.0 |
| 20260505072733 | 47 | 52 | 8.7 | 12.2 | 0.00 | 0.12 | 0.00 | 86 | 1012.0 |
| 20260505072231 | 47 | 39 | 7.8 | 12.2 | 0.00 | 0.12 | 0.00 | 86 | 1012.0 |
| 20260505071732 | 47 | 34 | 9.6 | 12.2 | 0.00 | 0.12 | 0.00 | 86 | 1012.0 |
| 20260505070232 | 47 | 32 | 7.8 | 11.3 | 0.00 | 0.12 | 0.00 | 87 | 1012.0 |
| 20260505065731 | 47 | 28 | 8.7 | 13.0 | 0.00 | 0.12 | 0.00 | 87 | 1012.0 |
| 20260505065232 | 47 | 48 | 9.6 | 13.0 | 0.00 | 0.12 | 0.00 | 87 | 1012.0 |
| 20260505064734 | 47 | 28 | 8.7 | 12.2 | 0.00 | 0.12 | 0.00 | 87 | 1012.0 |
| 20260505064231 | 47 | 31 | 9.6 | 14.8 | 0.00 | 0.12 | 0.00 | 87 | 1012.0 |
| 20260505063732 | 47 | 28 | 8.7 | 14.8 | 0.00 | 0.12 | 0.00 | 87 | 1011.9 |
| 20260505063236 | 47 | 49 | 8.7 | 14.8 | 0.00 | 0.12 | 0.00 | 87 | 1011.9 |
| 20260505062732 | 47 | 15 | 8.7 | 12.2 | 0.00 | 0.12 | 0.00 | 87 | 1011.9 |
| 20260505062231 | 47 | 63 | 8.7 | 12.2 | 0.00 | 0.12 | 0.00 | 87 | 1011.8 |
| 20260505061230 | 47 | 46 | 7.8 | 11.3 | 0.00 | 0.12 | 0.00 | 87 | 1011.9 |
| 20260505060730 | 47 | 49 | 7.8 | 13.9 | 0.00 | 0.12 | 0.00 | 86 | 1011.8 |
| 20260505060234 | 47 | 51 | 9.6 | 13.9 | 0.00 | 0.12 | 0.00 | 86 | 1011.8 |
| 20260505055731 | 47 | 46 | 9.6 | 13.0 | 0.00 | 0.12 | 0.00 | 87 | 1011.9 |
| 20260505054231 | 47 | 56 | 8.7 | 11.3 | 0.00 | 0.12 | 0.00 | 86 | 1011.9 |
| 20260505053731 | 47 | 41 | 7.8 | 11.3 | 0.00 | 0.12 | 0.00 | 87 | 1011.9 |
| 20260505053232 | 47 | 30 | 7.0 | 11.3 | 0.00 | 0.12 | 0.00 | 87 | 1011.9 |
| 20260505052730 | 47 | 27 | 7.0 | 13.0 | 0.00 | 0.12 | 0.00 | 87 | 1011.9 |
| 20260505052231 | 47 | 37 | 8.7 | 13.0 | 0.00 | 0.12 | 0.00 | 87 | 1012.0 |
| 20260505050732 | 47 | 42 | 8.7 | 12.2 | 0.00 | 0.12 | 0.00 | 87 | 1012.0 |
| 20260505050231 | 47 | 45 | 7.8 | 10.4 | 0.00 | 0.12 | 0.00 | 87 | 1011.9 |
| 20260505041732 | 47 | 54 | 7.8 | 11.3 | 0.00 | 0.12 | 0.00 | 86 | 1011.7 |
| 20260505041231 | 47 | 49 | 8.7 | 11.3 | 0.00 | 0.12 | 0.00 | 86 | 1011.8 |
| 20260505040731 | 47 | 51 | 7.8 | 11.3 | 0.00 | 0.12 | 0.00 | 86 | 1011.8 |
| 20260505040232 | 47 | 52 | 7.8 | 11.3 | 0.00 | 0.12 | 0.00 | 87 | 1011.7 |
| 20260505035730 | 47 | 52 | 7.8 | 12.2 | 0.00 | 0.12 | 0.00 | 87 | 1011.7 |
| 20260505035229 | 47 | 37 | 9.6 | 13.9 | 0.00 | 0.12 | 0.00 | 86 | 1011.7 |
| 20260505034729 | 47 | 51 | 11.3 | 13.9 | 0.00 | 0.12 | 0.00 | 87 | 1011.6 |
| 20260505034230 | 47 | 49 | 8.7 | 12.2 | 0.00 | 0.12 | 0.00 | 87 | 1011.6 |
| 20260505033729 | 47 | 56 | 8.7 | 11.3 | 0.00 | 0.12 | 0.00 | 86 | 1011.7 |
| 20260505033229 | 47 | 52 | 7.8 | 14.8 | 0.00 | 0.12 | 0.00 | 87 | 1011.7 |
| 20260505032729 | 47 | 42 | 9.6 | 14.8 | 0.00 | 0.12 | 0.00 | 86 | 1011.7 |
| 20260505032233 | 47 | 41 | 8.7 | 13.0 | 0.00 | 0.12 | 0.00 | 87 | 1011.7 |
| 20260505031711 | 47 | 41 | 10.4 | 13.0 | 0.00 | 0.12 | 0.00 | 86 | 1011.7 |
| 20260505031213 | 47 | 49 | 9.6 | 13.0 | 0.00 | 0.12 | 0.00 | 87 | 1011.8 |
| 20260505030712 | 47 | 45 | 9.6 | 13.0 | 0.00 | 0.12 | 0.00 | 87 | 1011.8 |
| 20260505025216 | 47 | 24 | 8.7 | 13.0 | 0.00 | 0.12 | 0.00 | 86 | 1012.0 |
| 20260505024211 | 47 | 49 | 8.7 | 12.2 | 0.00 | 0.12 | 0.00 | 86 | 1012.0 |